• In Germany
  • List of Countries
  • For 7 days
  • Water Temperature
  • Satellite Maps
  • Weather Map
  • Weather Widgets
  • user-avatar
    Login

    Hourly Weather Konstantyna

    Today, 17 August, Friday

    Time Temperature Precipitation Wind Pressure Humidity
    00:00 +22°C° 0 mm 0 mps 710 mmHg 76%
    01:00 +22°C° 0 mm 0 mps 710 mmHg 77%
    02:00 +21°C° 0 mm 0 mps 710 mmHg 77%
    03:00 +21°C° 0 mm 0 mps 709 mmHg 78%
    04:00 +21°C° 0 mm 0 mps 710 mmHg 77%
    05:00 +23°C° 0 mm 1 mps 710 mmHg 77%
    06:00 +24°C° 0 mm 1 mps 710 mmHg 76%
    07:00 +25°C° 0 mm 1 mps 710 mmHg 68%
    08:00 +27°C° 0 mm 1 mps 711 mmHg 59%
    09:00 +28°C° 0 mm 1 mps 711 mmHg 51%
    10:00 +30°C° 0 mm 1 mps 711 mmHg 45%
    11:00 +31°C° 0 mm 2 mps 712 mmHg 40%
    12:00 +32°C° 0 mm 2 mps 712 mmHg 34%
    13:00 +33°C° 0.1 mm 3 mps 712 mmHg 35%
    14:00 +33°C° 0.1 mm 3 mps 711 mmHg 35%
    15:00 +33°C° 0.1 mm 3 mps 711 mmHg 36%
    16:00 +31°C° 0.1 mm 3 mps 711 mmHg 41%
    17:00 +29°C° 0.1 mm 3 mps 711 mmHg 46%
    18:00 +28°C° 0.1 mm 2 mps 711 mmHg 50%
    19:00 +28°C° 0 mm 2 mps 711 mmHg 54%
    20:00 +27°C° 0 mm 2 mps 711 mmHg 57%
    21:00 +26°C° 0 mm 2 mps 711 mmHg 61%
    22:00 +26°C° 0.3 mm 1 mps 711 mmHg 63%
    23:00 +25°C° 0.3 mm 1 mps 711 mmHg 65%

    Tomorrow, 18 August, Saturday

    Time Temperature Precipitation Wind Pressure Humidity
    00:00 +25°C° 0.3 mm 1 mps 711 mmHg 67%
    01:00 +25°C° 0 mm 1 mps 711 mmHg 69%
    02:00 +24°C° 0 mm 1 mps 711 mmHg 71%
    03:00 +24°C° 0 mm 1 mps 710 mmHg 72%
    04:00 +24°C° 0 mm 1 mps 711 mmHg 73%
    05:00 +24°C° 0 mm 1 mps 711 mmHg 73%
    06:00 +24°C° 0 mm 1 mps 711 mmHg 74%
    07:00 +25°C° 0.1 mm 1 mps 711 mmHg 67%
    08:00 +27°C° 0.1 mm 1 mps 712 mmHg 60%
    09:00 +28°C° 0.1 mm 1 mps 712 mmHg 53%
    10:00 +29°C° 0.1 mm 1 mps 712 mmHg 49%
    11:00 +30°C° 0.1 mm 2 mps 712 mmHg 44%
    12:00 +32°C° 0.1 mm 2 mps 712 mmHg 40%
    13:00 +31°C° 0.2 mm 3 mps 712 mmHg 42%
    14:00 +31°C° 0.2 mm 3 mps 712 mmHg 44%
    15:00 +32°C° 0.2 mm 4 mps 711 mmHg 45%
    16:00 +30°C° 0.2 mm 4 mps 711 mmHg 51%
    17:00 +29°C° 0.2 mm 4 mps 711 mmHg 56%
    18:00 +28°C° 0.2 mm 4 mps 711 mmHg 61%
    19:00 +27°C° 0.3 mm 3 mps 712 mmHg 65%
    20:00 +26°C° 0.3 mm 2 mps 712 mmHg 68%
    21:00 +25°C° 0.3 mm 2 mps 712 mmHg 72%
    22:00 +25°C° 0.1 mm 2 mps 712 mmHg 74%
    23:00 +24°C° 0.1 mm 1 mps 712 mmHg 77%

    Day after tomorrow, 19 August, Sunday

    Time Temperature Precipitation Wind Pressure Humidity
    00:00 +24°C° 0.1 mm 1 mps 712 mmHg 79%
    01:00 +24°C° 0.1 mm 1 mps 712 mmHg 81%
    02:00 +23°C° 0.1 mm 1 mps 711 mmHg 82%
    03:00 +23°C° 0.1 mm 1 mps 711 mmHg 84%
    04:00 +23°C° 0 mm 1 mps 711 mmHg 84%
    05:00 +23°C° 0 mm 1 mps 711 mmHg 83%
    06:00 +23°C° 0 mm 1 mps 711 mmHg 83%
    07:00 +25°C° 0.3 mm 1 mps 712 mmHg 76%
    08:00 +26°C° 0.3 mm 1 mps 712 mmHg 68%
    09:00 +27°C° 0.3 mm 2 mps 712 mmHg 61%
    10:00 +28°C° 0.6 mm 2 mps 712 mmHg 56%
    11:00 +29°C° 0.6 mm 3 mps 713 mmHg 51%
    12:00 +31°C° 0.6 mm 3 mps 713 mmHg 46%
    13:00 +30°C° 0.1 mm 4 mps 712 mmHg 47%
    14:00 +30°C° 0.1 mm 4 mps 712 mmHg 48%
    15:00 +30°C° 0.1 mm 4 mps 712 mmHg 49%
    16:00 +29°C° 0.3 mm 4 mps 712 mmHg 53%
    17:00 +28°C° 0.3 mm 4 mps 711 mmHg 56%
    18:00 +27°C° 0.3 mm 3 mps 711 mmHg 60%
    19:00 +26°C° 0 mm 3 mps 711 mmHg 65%
    20:00 +25°C° 0 mm 2 mps 711 mmHg 69%
    21:00 +24°C° 0 mm 2 mps 711 mmHg 74%
    22:00 +24°C° 0 mm 2 mps 711 mmHg 76%
    23:00 +23°C° 0 mm 1 mps 711 mmHg 78%

    20 August, Monday

    Time Temperature Precipitation Wind Pressure Humidity
    00:00 +23°C° 0 mm 1 mps 711 mmHg 80%
    01:00 +22°C° 0 mm 1 mps 710 mmHg 81%
    02:00 +22°C° 0 mm 1 mps 710 mmHg 82%
    03:00 +22°C° 0 mm 1 mps 710 mmHg 83%
    04:00 +22°C° 0 mm 1 mps 710 mmHg 81%
    05:00 +22°C° 0 mm 1 mps 710 mmHg 79%
    06:00 +22°C° 0 mm 1 mps 710 mmHg 78%
    07:00 +23°C° 0 mm 1 mps 711 mmHg 69%
    08:00 +25°C° 0 mm 1 mps 711 mmHg 60%
    09:00 +26°C° 0 mm 2 mps 711 mmHg 50%
    10:00 +27°C° 0 mm 2 mps 711 mmHg 46%
    11:00 +28°C° 0 mm 3 mps 711 mmHg 41%
    12:00 +30°C° 0 mm 3 mps 712 mmHg 36%
    13:00 +30°C° 0 mm 4 mps 711 mmHg 37%
    14:00 +30°C° 0 mm 4 mps 711 mmHg 37%
    15:00 +30°C° 0 mm 5 mps 711 mmHg 37%
    16:00 +29°C° 0 mm 4 mps 711 mmHg 44%
    17:00 +28°C° 0 mm 4 mps 711 mmHg 50%
    18:00 +26°C° 0 mm 4 mps 711 mmHg 57%
    19:00 +25°C° 0 mm 3 mps 711 mmHg 62%
    20:00 +25°C° 0 mm 3 mps 711 mmHg 66%
    21:00 +24°C° 0 mm 2 mps 711 mmHg 71%
    22:00 +23°C° 0 mm 2 mps 711 mmHg 73%
    23:00 +23°C° 0 mm 1 mps 711 mmHg 74%

    21 August, Tuesday

    Time Temperature Precipitation Wind Pressure Humidity
    00:00 +23°C° 0 mm 1 mps 711 mmHg 75%
    01:00 +22°C° 0 mm 1 mps 711 mmHg 75%
    02:00 +22°C° 0 mm 1 mps 710 mmHg 75%
    03:00 +22°C° 0 mm 1 mps 710 mmHg 75%
    04:00 +22°C° 0 mm 1 mps 710 mmHg 72%
    05:00 +22°C° 0 mm 1 mps 711 mmHg 70%
    06:00 +22°C° 0 mm 1 mps 711 mmHg 67%
    07:00 +24°C° 0 mm 1 mps 711 mmHg 61%
    08:00 +25°C° 0 mm 1 mps 711 mmHg 54%
    09:00 +27°C° 0 mm 2 mps 712 mmHg 48%
    10:00 +28°C° 0 mm 2 mps 712 mmHg 45%
    11:00 +29°C° 0 mm 2 mps 712 mmHg 41%
    12:00 +30°C° 0 mm 3 mps 712 mmHg 38%
    13:00 +30°C° 0 mm 3 mps 712 mmHg 38%
    14:00 +30°C° 0 mm 4 mps 711 mmHg 38%
    15:00 +30°C° 0 mm 4 mps 711 mmHg 39%
    16:00 +29°C° 0 mm 4 mps 711 mmHg 44%
    17:00 +28°C° 0 mm 4 mps 711 mmHg 49%
    18:00 +27°C° 0 mm 4 mps 711 mmHg 55%
    19:00 +26°C° 0 mm 3 mps 711 mmHg 60%
    20:00 +25°C° 0 mm 2 mps 711 mmHg 65%
    21:00 +25°C° 0 mm 1 mps 712 mmHg 70%
    22:00 +24°C° 0 mm 1 mps 711 mmHg 72%
    23:00 +24°C° 0 mm 1 mps 711 mmHg 75%

    22 August, Wednesday

    Time Temperature Precipitation Wind Pressure Humidity
    00:00 +23°C° 0 mm 1 mps 711 mmHg 77%
    01:00 +23°C° 0 mm 1 mps 711 mmHg 77%
    02:00 +23°C° 0 mm 1 mps 711 mmHg 77%
    03:00 +23°C° 0 mm 1 mps 711 mmHg 77%
    04:00 +21°C° 0 mm 0 mps 711 mmHg 75%
    05:00 +21°C° 0 mm 0 mps 711 mmHg 73%
    06:00 +22°C° 0 mm 0 mps 711 mmHg 71%
    07:00 +23°C° 0 mm 0 mps 711 mmHg 62%
    08:00 +25°C° 0 mm 0 mps 712 mmHg 54%
    09:00 +26°C° 0 mm 0 mps 712 mmHg 46%
    10:00 +30°C° 0 mm 1 mps 712 mmHg 40%
    11:00 +31°C° 0 mm 1 mps 712 mmHg 35%
    12:00 +32°C° 0 mm 2 mps 712 mmHg 30%
    13:00 +34°C° 0 mm 2 mps 712 mmHg 30%
    14:00 +34°C° 0 mm 3 mps 712 mmHg 30%
    15:00 +34°C° 0 mm 4 mps 711 mmHg 29%
    16:00 +33°C° 0 mm 3 mps 711 mmHg 34%
    17:00 +31°C° 0 mm 3 mps 711 mmHg 39%
    18:00 +30°C° 0 mm 3 mps 711 mmHg 44%
    19:00 +29°C° 0 mm 2 mps 711 mmHg 49%
    20:00 +28°C° 0 mm 2 mps 711 mmHg 54%
    21:00 +27°C° 0 mm 2 mps 711 mmHg 59%
    22:00 +27°C° 0 mm 1 mps 711 mmHg 60%
    23:00 +26°C° 0 mm 1 mps 711 mmHg 62%
    Show more